Showing default

BRO-1, 44495

Orbit data source: Space-Track

BRO-1, 44495 is a payload satellite owned by Unseen Labs (FR) in LEO that was launched on Mon, 19 Aug 2019 UTC via an ELECTRON launch vehicle from the Rocket Lab Launch Complex (RLLC). Payload-class satellites include a variety of spacecraft equipped with specific instruments for various scientific and technological missions. These include communications satellites like Starlink; space stations such as the ISS; scientific satellites like the Hubble; Earth observation satellites from companies like Planet Labs, Umbra, and HawkEye 360; GPS; miniature CubeSats for education and research; and military/defense satellites.

Loading next visibility...
Identifier
44495, 2019-054A
Orbit
LEO
Country
Flag of FRFR
Related business
Manufacturer
GOMSpace
Mission
Operational Commercial Sigint
Bus & Motor
CUBESAT 6U, Unknown motor
Mass
10 kg wet, ~10 kg dry
Launch date (UTC)
2019-08-19 (6 years ago)
Launch vehicle
ELECTRON
Launch site
Rocket Lab Launch Complex (RLLC)
Object type
Payload
Rocket body
Debris
Shape & HBR
Box, 0.1 m
Radar Cross Section
0.080 m², Small (<0.1 m²)

Expand to show TLE details & history
Last TLE update: 12 hours ago

TLE from 12 hours ago
0 BRO-1
1 44495U 19054A   25309.89870163  .00042315  00000-0  70168-3 0  9996
2 44495  45.0023 141.1751 0007850 226.3737 133.6505 15.51472891344739
Epoch: 2025-11-05T21:34Z
TLE epoch observation values (Epoch: 2025-11-05T21:34:07.820Z)
Latitude
-0.00001°
Longitude
132.27774°
Altitude
416.105 km
Speed
7.661 km/s
True Right ascension
09h 24m 42s
True Declination
0° 00' 00"
Sunlit
Object was in daylight at epoch
Visualization orbit readout
Latitude
Unknown
Longitude
Unknown
Altitude
Unknown
Speed
Unknown
Apparent Right ascension
Unknown
Apparent Declination
Unknown
Sunlit
N/A
Visualization observer readout
Local Sidereal Time
05:07:53
Azimuth
Unknown
Elevation
Unknown
Doppler factor
Unknown
Orbital elements
Apogee altitude
419.382 km
Perigee altitude
408.719 km
Semi-major axis
6,792.187 km
Eccentricity
0.00079
Inclination
45.0023°
RAAN
141.1751°
Arg. of periapsis
226.3737°
True anomaly
133.71554°
Mean anomaly
133.6505°
Eccentric anomaly
133.68303°
Mean motion
3.87729 °/min
Orbital period
92.85 mins
BSTAR
0.00070168
Loading maneuver chart data...
Computing Atmospheric mass density...
Loading historical data...
Loading historical data...
Loading historical data...
Loading historical data...
Loading historical data...
Loading historical data...
Loading historical data...

Documentation

Showing up to 5 results
|